This is the latest recevied weather packets stored in our database for station/object KCDH. If no packets are shown the sender has not sent any weather packets the latest 10 day(s).
| Time | Temp. | Humidity | Pressure | Rain* | Wind** | Luminosity | Snow |
|---|---|---|---|---|---|---|---|
| 1787894005 | 23.89° C | 94% | 1014.9 hPa | - | - | - | - |
| 1787893408 | 23.89° C | 94% | 1014.9 hPa | - | - | - | - |
| 1787892805 | 23.89° C | 94% | 1014.9 hPa | - | - | - | - |
| 1787892206 | 23.89° C | 94% | 1014.9 hPa | - | - | - | - |
| 1787891621 | 23.89° C | 88% | 1014.9 hPa | - | - | - | - |
| 1787891003 | 23.89° C | 88% | 1014.9 hPa | - | - | - | - |
| 1787890403 | 25° C | 88% | 1014.6 hPa | - | - | - | - |
| 1787889804 | 25° C | 88% | 1014.6 hPa | - | - | - | - |
| 1787889207 | 25° C | 88% | 1014.9 hPa | - | - | - | - |
| 1787888606 | 25° C | 88% | 1014.9 hPa | - | - | - | - |
| 1787888007 | 25° C | 83% | 1014.2 hPa | - | - | - | - |
| 1787887406 | 25° C | 83% | 1014.2 hPa | - | - | - | - |
| 1787886806 | 25.56° C | 78% | 1014.2 hPa | - | - | - | - |
| 1787886207 | 25.56° C | 78% | 1014.2 hPa | - | - | - | - |
| 1787885606 | 25.56° C | 78% | 1013.9 hPa | - | - | - | - |
| 1787885003 | 25.56° C | 78% | 1013.9 hPa | - | - | - | - |
| 1787884404 | 25.56° C | 78% | 1013.9 hPa | - | - | - | - |
| 1787883808 | 25.56° C | 78% | 1013.9 hPa | - | - | - | - |
| 1787883208 | 26.67° C | 74% | 1013.2 hPa | - | - | - | - |
| 1787882605 | 26.67° C | 74% | 1013.2 hPa | - | - | - | - |
| 1787882006 | 26.67° C | 74% | 1013.2 hPa | - | - | - | - |
| 1787881406 | 26.67° C | 74% | 1013.2 hPa | - | - | - | - |
| 1787880807 | 26.67° C | 78% | 1012.9 hPa | - | - | - | - |
| 1787880205 | 26.67° C | 78% | 1012.9 hPa | - | - | - | - |
| 1787879604 | 28.89° C | 66% | 1012.5 hPa | - | - | - | - |
* Rain since midnight (hover to see other rain measurements)
** Current wind speed in m/s (hover to see current wind gust speed)